Regional Weather Roundup
Issued by NWS

Home | Current Version | Previous Version | Text Only | Print | Product List | Glossary On
Versions: 1 2 3 4 5 6 7 8 9 10 11 12 13 14 15 16 17 18 19 20 21 22 23 24 25 26 27
000
ASUS45 KTFX 280410
RWRMT
MONTANA REGIONAL WEATHER ROUNDUP
NATIONAL WEATHER SERVICE GREAT FALLS MT
1000 PM MDT FRI MAY 27 2016

NOTE: "FAIR" INDICATES FEW OR NO CLOUDS BELOW 12000 FEET WITH NO
SIGNIFICANT WEATHER AND/OR OBSTRUCTIONS TO VISIBILITY.

MTZ001>007-043-280500-
WEST OF THE DIVIDE

CITY           SKY/WX    TMP DP  RH WIND       PRES   REMARKS
KALISPELL      PTCLDY    47  37  68 N8        29.97R
MISSOULA       PTCLDY    47  36  65 NW3       30.00R
BUTTE          CLOUDY    44  38  79 SE5       30.00R
MULLAN PASS    CLEAR     35  23  61 SW7       30.01S WCI  29
ANACONDA         N/A     43  39  87 SW3       29.99R
DEER LODGE       N/A     45  39  81 CALM      30.00R
EUREKA           N/A     52  36  54 E5        29.97R
HAMILTON         N/A     50  34  53 CALM      29.98R
LIBBY            N/A     45  39  81 CALM      29.99R
$$

MTZ008-052>055-280500-
SOUTHWEST MONTANA

CITY           SKY/WX    TMP DP  RH WIND       PRES   REMARKS
BOZEMAN        CLOUDY    49  45  86 SW5       29.98R
DILLON         CLOUDY    44  39  82 SE8       29.99R
W YELLOWSTONE  CLOUDY    41  39  93 CALM      29.99R
ENNIS          CLOUDY    45  43  93 N9        30.04R
$$

MTZ009-010-012-014-046-048-049-054-280500-
EAST SLOPES AND CENTRAL MONTANA

CITY           SKY/WX    TMP DP  RH WIND       PRES   REMARKS
CUT BANK       PTCLDY    43  34  70 W10       29.91R
GREAT FALLS    CLOUDY    51  44  77 E6        29.93R
MALMSTROM AFB  CLOUDY    50  48  93 S7        29.92R
HELENA         CLOUDY    53  39  59 W7        29.93R
CHOTEAU          N/A     48  32  53 NW9       29.93R
$$

MTZ011-013-016-021-045-047-050-051-280500-
NORTH CENTRAL MONTANA

CITY           SKY/WX    TMP DP  RH WIND       PRES   REMARKS
HAVRE          RAIN      55  49  80 SW14      29.86R
LEWISTOWN      RAIN      50  46  86 W3        29.92S FOG
N BAR RANCH    CLOUDY    46  43  87 NW9       29.93R
CHINOOK          N/A     57  50  77 NW3       29.86R
$$

MTZ017>020-022>027-061-062-280500-
NORTHEAST MONTANA

CITY           SKY/WX    TMP DP  RH WIND       PRES   REMARKS
GLASGOW        CLOUDY    59  50  72 E10       29.84R
JORDAN           N/A     51  47  86 CALM      29.84R
SIDNEY         CLOUDY    57  52  82 N9        29.85R
WOLF POINT     CLEAR     56  51  84 NE5       29.85R
PLENTYWOOD       N/A     55  54  94 E6        29.88R
POPLAR           N/A     57  52  82 CALM      29.86R
$$

MTZ028>42-056>058-280500-
SOUTHCENTRAL AND SOUTHEAST MONTANA

CITY           SKY/WX    TMP DP  RH WIND       PRES   REMARKS
BAKER          PTCLDY    52  45  77 CALM      29.85R
BILLINGS       CLOUDY    54  48  80 W8        29.89R
LIVINGSTON     CLOUDY    48  44  86 W12       29.95R
MILES CITY     CLEAR     60  47  61 E3        29.83R
FORSYTH          N/A     57  52  82 CALM      29.84R
$$

REGIONAL REPORTS...DAKOTAS

CITY           SKY/WX    TMP DP  RH WIND       PRES   REMARKS
WILLISTON      PTCLDY    58  53  84 NE7       29.86R
MINOT          CLOUDY    59  55  87 N6        29.87R
DICKINSON      CLEAR     52  44  74 E5        29.84R
BEACH            N/A     52  50  93 E3        29.88R
CROSBY         MOCLDY    55  55 100 E14       29.91S
WATFORD CITY     N/A     54  54 100 NE6       29.87R
BISMARCK       MOCLDY    60  51  72 NE6       29.82R
GRAND FORKS    CLOUDY    64  59  83 E9        29.79R
FARGO          CLOUDY    63  59  87 NE7       29.78S
BUFFALO SD       N/A     58  46  64 SE6       29.79R
RAPID CITY     CLOUDY    54  47  77 W5        29.86R
$$

REGIONAL REPORTS...WYOMING/IDAHO/WASHINGTON

CITY           SKY/WX    TMP DP  RH WIND       PRES   REMARKS
GILLETTE       CLEAR     42  39  89 S6        29.88R
SHERIDAN       MOCLDY    50  46  86 NW14      29.91R
BUFFALO WY     CLOUDY    52  42  69 NW13      29.92R
CODY           CLOUDY    52  46  82 NW5       29.91S
YELLOWSTONE LA   N/A     36  33  89 CALM      30.04S
IDAHO FALLS    PTCLDY    53  33  46 SW10      29.94R
SALMON         CLOUDY    52  39  62 CALM      29.96R
BOISE          CLEAR     60  27  28 NW9       29.95R
SPOKANE        MOCLDY    55  30  38 S8        29.97R
$$

REGIONAL REPORTS...ALBERTA

CITY           SKY/WX    TMP DP  RH WIND       PRES   REMARKS
EDMONTON       CLOUDY    54  46  76 W8        29.78
CALGARY        MOCLDY    46  41  81 NE8       29.85R
LETHBRIDGE     MOCLDY    48  34  57 W15       29.86R
MEDICINE HAT   MOCLDY    55  52  88 SW2       29.83R
WATERTON GATE    N/A     45  28  53 W9          N/A
CARDSTON         N/A     46  34  61 SW7         N/A
MILK RIVER       N/A     46  36  66 W8          N/A
$$

REGIONAL REPORTS...SASKATCHEWAN

CITY           SKY/WX    TMP DP  RH WIND       PRES   REMARKS
SWIFT CURRENT  CLOUDY    57  48  72 SE12      29.86R
REGINA         PTCLDY    59  50  72 E12       29.90R
SASKATOON      MOCLDY    59  50  72 SE6       29.91R
CYPRESS HILLS    N/A     46  43  87 SW6         N/A
VAL MARIE        N/A     55  48  76 E6          N/A
ROCKGLEN         N/A     50  48  93 E5          N/A
ASSINIBOIA       N/A     54  52  94 NW5         N/A
$$




USA.gov is the U.S. government's official web portal to all federal, state and local government web resources and services.